Logan, UT

9:37 AM MDT on October 19, 2019 (GMT -0600)
Logan-Cache

Weather History for KLGU - September, 2019

Change the Weather History Date:

Wednesday, September 18, 2019

  Actual Average Record
Temperature  
Mean Temperature 54 °F -  
Max Temperature 77 °F 76 °F 91 °F (1958)
Min Temperature 34 °F 42 °F 22 °F (1965)
Degree Days  
Heating Degree Days 10    
Growing Degree Days 4 (Base 50)    
Moisture  
Dew Point 36 °F    
Average Humidity 55    
Maximum Humidity 96    
Minimum Humidity 19    
Precipitation  
Precipitation 0.00 in - - ()
Sea Level Pressure  
Sea Level Pressure 29.89 in    
Wind  
Wind Speed 3 mph ()    
Max Wind Speed 15 mph    
Max Gust Speed -    
Visibility 10.0 miles    
Events      
Averages and records for this station are not official NWS values.
T = Trace of Precipitation, MM = Missing Value Source: Averaged Metar Reports

Daily Weather History Graph

Daily Weather History Graph

Search for Another Location

Airport or City:

Astronomy

Sep. 18, 2019 Rise Set
Actual Time 7:10 AM MDT 7:31 PM MDT
Civil Twilight 6:42 AM MDT 7:59 PM MDT
Nautical Twilight 6:09 AM MDT 8:32 PM MDT
Astronomical Twilight 5:36 AM MDT 9:05 PM MDT
Moon 10:04 PM MDT (9/18) 11:20 AM MDT (9/18)
Length of Visible Light 13h 17m
Length of Day
12h 21m
Waning Gibbous, 82% of the Moon is Illuminated
Sep 18
Waning Gibbous
Sep 21
Last Quarter
Sep 28
New
Oct 5
First Quarter
Oct 13
Full

Hourly Weather History & Observations

Time (MDT) Temp. Windchill Dew Point Humidity Pressure Visibility Wind Dir Wind Speed Gust Speed Precip Events Conditions
12:51 AM 46.0 °F 44.8 °F 36.0 °F 68% 30.00 in 10.0 mi East 3.5 mph - N/A   Clear
1:51 AM 46.9 °F - 35.1 °F 63% 29.99 in 10.0 mi Calm Calm - N/A   Clear
2:51 AM 41.0 °F 39.0 °F 36.0 °F 82% 29.99 in 10.0 mi NE 3.5 mph - N/A   Clear
3:51 AM 42.1 °F - 36.0 °F 79% 29.98 in 10.0 mi Calm Calm - N/A   Clear
4:51 AM 37.9 °F 34.4 °F 34.0 °F 86% 29.98 in 10.0 mi WNW 4.6 mph - N/A   Clear
5:51 AM 39.9 °F - 37.0 °F 89% 29.97 in 10.0 mi Calm Calm - N/A   Clear
6:51 AM 34.0 °F 29.8 °F 33.1 °F 96% 29.99 in 10.0 mi NNE 4.6 mph - N/A   Clear
7:51 AM 37.9 °F 35.5 °F 34.0 °F 86% 29.99 in 10.0 mi WSW 3.5 mph - N/A   Clear
8:51 AM 43.0 °F - 37.9 °F 82% 30.00 in 10.0 mi Calm Calm - N/A   Clear
9:51 AM 48.9 °F - 37.9 °F 66% 29.97 in 10.0 mi NW 3.5 mph - N/A   Clear
10:51 AM 54.0 °F - 37.0 °F 53% 29.96 in 10.0 mi NNW 6.9 mph - N/A   Clear
11:51 AM 59.0 °F - 34.0 °F 39% 29.94 in 10.0 mi Variable 4.6 mph - N/A   Clear
12:51 PM 64.0 °F - 37.0 °F 37% 29.90 in 10.0 mi Variable 3.5 mph - N/A   Clear
1:51 PM 70.0 °F - 36.0 °F 29% 29.85 in 10.0 mi Calm Calm - N/A   Clear
2:51 PM 73.0 °F - 35.1 °F 25% 29.83 in 10.0 mi North 5.8 mph - N/A   Clear
3:51 PM 75.0 °F - 32.0 °F 21% 29.80 in 10.0 mi Calm Calm - N/A   Clear
4:51 PM 75.0 °F - 30.0 °F 19% 29.79 in 10.0 mi Calm Calm - N/A   Clear
5:51 PM 75.9 °F - 32.0 °F 20% 29.76 in 10.0 mi NE 5.8 mph - N/A   Clear
6:51 PM 72.0 °F - 37.9 °F 29% 29.77 in 10.0 mi North 5.8 mph - N/A   Clear
7:51 PM 61.0 °F - 42.1 °F 50% 29.78 in 10.0 mi NNE 6.9 mph - N/A   Clear
8:51 PM 62.1 °F - 39.9 °F 44% 29.76 in 10.0 mi SSE 3.5 mph - N/A   Clear
9:51 PM 61.0 °F - 37.0 °F 41% 29.74 in 10.0 mi South 8.1 mph - N/A   Clear
10:51 PM 48.0 °F - 39.9 °F 74% 29.77 in 10.0 mi NNW 10.4 mph - N/A   Clear
11:51 PM 54.0 °F - 37.0 °F 53% 29.76 in 10.0 mi North 15.0 mph - N/A   Clear